Regional Weather Roundup
Issued by NWS

Home | Current Version | Previous Version | Text Only | Print | Product List | Glossary Off
Versions: 1 2 3 4 5 6 7 8 9 10 11 12 13 14 15 16 17 18 19 20 21 22 23 24 25 26 27 28 29 30 31 32 33 34 35 36 37 38 39 40 41 42 43 44 45 46 47 48 49 50

000
ASUS43 KMPX 290710
RWRMN
WEATHER ROUNDUP FOR MINNESOTA
NATIONAL WEATHER SERVICE TWIN CITIES/CHANHASSEN MN
200 AM CDT FRI AUG 29 2014


NOTE: "FAIR" INDICATES FEW OR NO CLOUDS BELOW 12,000 FEET WITH NO
SIGNIFICANT WEATHER AND/OR OBSTRUCTIONS TO VISIBILITY. N/A MEANS
CURRENT SKY AND/OR WEATHER CONDITIONS ARE NOT AVAILABLE.

MNZ060>063-068>070-290800-
   Twin Cities Metro

CITY           SKY/WX    TMP DP  RH WIND       PRES   REMARKS
TWIN CITIES    CLOUDY    66  65  96 SE13      29.85F
ST PAUL        CLOUDY    67  65  93 SE13      29.85F
CRYSTAL        CLOUDY    68  64  87 SE8       29.84F
BLAINE         DRIZZLE   68  66  94 SE7       29.85F
LAKEVILLE      CLOUDY    64  64 100 SE6       29.85F FOG
EDEN PRAIRIE   CLOUDY    67  65  93 SE9       29.83F
SOUTH ST PAUL  CLOUDY    67  65  93 SE7       29.86F
LAKE ELMO      LGT RAIN  64  64 100 SE7       29.87F
$$
MNZ001>005-007-008-013>017-022>024-027-028-290800-
   Northwest Minnesota

CITY           SKY/WX    TMP DP  RH WIND       PRES   REMARKS
BEMIDJI        CLOUDY    64  62  93 S9        29.87S
HALLOCK        CLOUDY    66  64  94 S9        29.79F
ROSEAU         MOCLDY    66  61  82 S7        29.83S
WARROAD        MOCLDY    64  61  88 SW3       29.83F
THIEF RVR FALL CLOUDY    63  61  94 S6        29.83F
CROOKSTON      MOCLDY    64  63  94 S5        29.82F
FOSSTON        CLOUDY    63  61  94 SE5       29.85F
DETROIT LAKES  DRIZZLE   64  63  94 SE9       29.85F
MOORHEAD       CLOUDY    66  66 100 S6        29.82F
PARK RAPIDS    LGT RAIN  64  63  96 SE8       29.85F
MAHNOMEN       CLOUDY    64  63  97 CALM      29.84F
$$
MNZ006-009>011-018-025>026-290800-
   North Central Minnesota

CITY           SKY/WX    TMP DP  RH WIND       PRES   REMARKS
BAUDETTE       CLOUDY    64  61  90 CALM      29.84F
FLAG ISLAND    CLOUDY    68  63  83 S8        29.82R
INTL FALLS     CLOUDY    62  59  90 CALM      29.87F
WASKISH        CLOUDY    64  61  88 SE6       29.85F
BIG FORK       CLOUDY    63  59  88 S6        29.88F
LONGVILLE      CLOUDY    63  63 100 SE5       29.86F
GRAND RAPIDS   CLOUDY    61  55  82 SE6       29.89F
CRANE LAKE     CLOUDY    61  55  82 CALM      29.91F
ORR            LGT RAIN  61  55  82 S5        29.87F
COOK           CLOUDY    63  57  82 S3        29.90F
WALKER         DRIZZLE   63  62  96 SE5       29.86F
$$
MNZ012-019>021-037-290800-
   Northeast Minnesota

CITY           SKY/WX    TMP DP  RH WIND       PRES   REMARKS
DULUTH         CLOUDY    60  56  86 E5        29.91F
ELY            CLOUDY    59  52  77 S5        29.92F
HIBBING        CLOUDY    59  56  89 CALM      29.90F
EVELETH        LGT RAIN  57  54  88 CALM      29.92F
DULUTH HARBOR  CLOUDY    63  61  94 NE12      29.91F
TWO HARBORS    CLOUDY    57  52  82 CALM      29.91F
SILVER BAY     CLOUDY    55  55 100 CALM      29.92F
GRAND MARAIS     N/A     59  54  83 CALM      29.94F
G MARAIS ARPRT CLOUDY    55  48  76 CALM      29.97F
$$
MNZ029>031-032-039>041-046>048-054>057-064-290800-
   West Central Minnesota

CITY           SKY/WX    TMP DP  RH WIND       PRES   REMARKS
FERGUS FALLS   CLOUDY    66  64  94 SE5       29.83F
WHEATON        CLOUDY    64  63  94 CALM      29.83S FOG
MORRIS         CLOUDY    66  64  94 SE6       29.81F FOG
ALEXANDRIA     CLOUDY    65  63  93 SE12      29.85F
ELBOW LAKE     CLOUDY    65  64  99 SE8       29.82F
WADENA         DRIZZLE   63  63 100 SE7       29.84F
GLENWOOD       CLOUDY    64  63  94 E8        29.84F
APPLETON       CLOUDY    66  64  94 SE3       29.81F FOG
BENSON         CLOUDY    64  64 100 SE5       29.82F FOG
ORTONVILLE     FOG       66  64  94 SE8       29.81F VSB 1
MADISON        CLOUDY    70  66  88 E3        29.80F FOG
WILLMAR        CLOUDY    66  64  94 E7        29.84F
$$
MNZ033>034-036-042>043-049>051-058-059-290800-
   Central Minnesota

CITY           SKY/WX    TMP DP  RH WIND       PRES   REMARKS
ST CLOUD       CLOUDY    67  64  90 E6        29.84F FOG
SAUK CENTRE    CLOUDY    64  63  96 SE6       29.85F
PAYNESVILLE    RAIN      63  62  98 E7        29.84F
AITKIN         CLOUDY    66  61  82 SE5       29.87F
PINE RIVER     CLOUDY    63  63 100 SE7       29.90F
BRAINERD       CLOUDY    63  62  97 SE5       29.88F
STAPLES        RAIN      63  63 100 SE6       29.85F
LONG PRAIRIE   CLOUDY    63  63 100 SE7       29.86F FOG
LITTLE FALLS   CLOUDY    63  61  94 E5        29.86F FOG
LITCHFIELD     CLOUDY    66  66 100 SE6       29.84F
BUFFALO        CLOUDY    66  63  89 E3        29.85F
MAPLE LAKE     CLOUDY    68  66  93 E6        29.86F
$$
MNZ037-044-045-052-053-290800-
   East Central Minnesota

CITY           SKY/WX    TMP DP  RH WIND       PRES   REMARKS
PRINCETON      CLOUDY    66  64  94 E3        29.86F
MORA           CLOUDY    63  61  94 CALM      29.90F
CAMBRIDGE      DRIZZLE   66  59  77 E5        29.85F
RUSH CITY      CLOUDY    65  62  92 CALM      29.88F
MOOSE LAKE     CLOUDY    64  59  82 CALM      29.89F
HINCKLEY       CLOUDY    64  63  94 E5        29.89F
CLOQUET        CLOUDY    61  57  88 E3        29.91F
MCGREGOR       CLOUDY    63  61  94 SE7       29.89F
$$
MNZ071>073-080-081-089-090-097-098-290800-
   Southwest Minnesota

CITY           SKY/WX    TMP DP  RH WIND       PRES   REMARKS
MONTEVIDEO     CLOUDY    64  64 100 SE8       29.82F
GRANITE FALLS  CLOUDY    65  65  99 E5        29.82F FOG
CANBY          FOG       66  65  97 E6        29.81F VSB 1/2
MARSHALL       CLOUDY    66  64  94 SE7       29.80F VSB 1/2
REDWOOD FALLS  FOG       66  66 100 SE7       29.82S VSB 1/2
OLIVIA         CLOUDY    64  63  94 SE7       29.81F FOG
PIPESTONE      CLOUDY    72  70  94 S6        29.81F FOG
WINDOM         FOG       68  66  94 SE6       29.84S VSB 3/4
WORTHINGTON    CLOUDY    72  72 100 S9        29.85S
JACKSON        CLOUDY    72  70  94 S9G16     29.85S FOG
TRACY          FOG       68  67  98 CALM      29.82S VSB 1
SLAYTON        FOG       67  67 100 CALM      29.82F VSB 1/2
$$
MNZ065>067-074>077-082>085-091>093-290800-
   South Central Minnesota

CITY           SKY/WX    TMP DP  RH WIND       PRES   REMARKS
MANKATO        CLOUDY    73  64  73 S6        29.84F THUNDER
NEW ULM        CLOUDY    66  66 100 SE6       29.82F FOG
ST JAMES       CLOUDY    70  70 100 SE6       29.84F FOG
FAIRMONT       MOCLDY    66  66 100 S12       29.84F
GLENCOE        CLOUDY    67  64  90 E7        29.83F FOG
FARIBAULT      CLOUDY    70  64  83 SE6       29.86F HAZE
OWATONNA       TSTM      70  66  88 SE6       29.87F
WASECA         CLOUDY    66  63  88 SE8       29.87F FOG
ALBERT LEA     CLOUDY    70  68  94 S12G18    29.87F
$$
MNZ078>079-086>088-094>096-290800-
   Southeast Minnesota

CITY           SKY/WX    TMP DP  RH WIND       PRES   REMARKS
ROCHESTER      LGT RAIN  67  65  93 S13       29.91F VSB 1
RED WING       CLOUDY    66  64  94 SE10G16   29.87F
STANTON        CLOUDY    67  65  91 SE6       29.85F
DODGE CENTER   TSTM      68  66  94 S9        29.89F
WINONA         CLOUDY    64  63  94 SE7       29.91F FOG
AUSTIN         TSTM      68  66  94 S9G16     29.89F
PRESTON        CLOUDY    66  66 100 CALM      29.92F FOG
$$
ABBREVIATIONS USED IN REMARKS
   TC - TEMPERATURES IN CELSIUS
  WCI - WIND CHILL INDEX
   HX - HEAT INDEX
  VSB - VISIBILITY
$$



USA.gov is the U.S. government's official web portal to all federal, state and local government web resources and services.